Location: Marion Hill
(40.7303°N, 80.2959°W)
Time: 09:35:20
(UTC+00:00)

CZ-2D R/B - Pass Details

Date: 29 October 2020
Orbit: 521 x 537 km, 97.4° (Epoch: 27 November)

Event Time Altitude Azimuth Distance (km) Brightness Sun altitude
Rises 23:40:03 0° 165° (SSE) 2,647 6.7 -15.6°
Reaches altitude 10° 23:42:08 10° 164° (SSE) 1,761 5.8 -16.0°
Maximum altitude 23:45:56 83° 76° (ENE) 534 3.1 -16.7°
Drops below altitude 10° 23:49:45 10° 350° (N) 1,768 6.0 -17.4°
Sets 23:51:52 0° 349° (N) 2,660 6.9 -17.8°
